Asahi, Japan

9:23 PM JST on February 25, 2017 (GMT +0900)
Asahikawa | | Change Station

Elev 692 ft 43.67 °N, 142.45 °E | Updated 33 minutes ago

Snow
Snow
27 °F
Feels Like 18 °F
N
9
Wind Variable Wind from South

Today
High -- | Low -- °F
--% Chance of Precip.
Yesterday
High -- | Low -- °F
Precip. -- in
Pressure 29.74 in
Visibility -9999.0 miles
Clouds Few 500 ft
Scattered Clouds 1200 ft
Mostly Cloudy 1800 ft
Windchill 18 °F
Dew Point 25 °F
Humidity 93%
Rainfall 0.00 in
Snow Depth Not available.
6:13 AM 5:12 PM
Waning Crescent, 1% visible
SPECI RJEC 251150Z 19008KT 3200 -SHSN FEW005 SCT012 BKN018 M03/M04 Q1007 RMK 1ST005 3ST012 6ST018 A2976
Pressure 29.74 in
Visibility -9999.0 miles
Clouds Few 500 ft
Scattered Clouds 1200 ft
Mostly Cloudy 1800 ft
Windchill 18 °F
Dew Point 25 °F
Humidity 93%
Rainfall 0.00 in
Snow Depth Not available.
6:13 AM 5:12 PM
Waning Crescent, 1% visible
SPECI RJEC 251150Z 19008KT 3200 -SHSN FEW005 SCT012 BKN018 M03/M04 Q1007 RMK 1ST005 3ST012 6ST018 A2976

Get Your Daily Forecast Email!

Thanks for signing up!

Be on the lookout for a verification email in your inbox.

You'll start receiving the daily forecast at 8 AM.

×

10-Day Weather Forecast

No radar image for this location.
×

Almanac

Astronomy

Feb. 25, 2017 Rise Set
Actual Time
Civil Twilight
Nautical Twilight
Astronomical Twilight
Moon
Length of Visible Light
Length of Day
Tomorrow will be .
, % of the Moon is Illuminated

Today's Extremes

Country Highs Country Lows

Community

WunderPhotos

Upload Photos

1,962,540 photos uploaded!

WunderBlog® & News

Nearby

Air Quality

  Air Quality AQ Index Pollutant
Not available.

Snow Depth

Station Depth Elevation

Earthquake Activity

City Distance Mag. Time & Date
Minimum magnitude displayed is 2.5.

Coastal Water Temperatures

Place Temperature

Stations

Nearby Weather Stations

Station Location Temp. Windchill Dew Point Humidity Wind Precip. Elev Updated Type